Weather History for KVIS - June, 2013

Change the Weather History Date:

Thursday, June 13, 2013

  Actual Average Record
Temperature  
Mean Temperature 74 °F -  
Max Temperature 87 °F 88 °F 107 °F (1933)
Min Temperature 60 °F 58 °F 42 °F (1977)
Cooling Degree Days 8    
Growing Degree Days 24 (Base 50)    
Moisture  
Dew Point 40 °F    
Average Humidity 30    
Maximum Humidity 45    
Minimum Humidity 15    
Precipitation  
Precipitation 0.00 in - - ()
Sea Level Pressure  
Sea Level Pressure 29.98 in    
Wind  
Wind Speed 11 mph (NW)    
Max Wind Speed 16 mph    
Max Gust Speed 20 mph    
Visibility 10 miles    
Events      
Averages and records for this station are not official NWS values.
T = Trace of Precipitation, MM = Missing Value Source: NWS Daily Summary

Daily Weather History Graph

Daily Weather History Graph

Search for Another Location

Airport or City:

Trip Planner

Search our weather history database for the weather conditions in past years. The results will help you decide how hot, cold, wet, or windy it might be!

Date:

Astronomy

Jun. 13, 2013 Rise Set
Actual Time 5:39 AM PDT 8:16 PM PDT
Civil Twilight 5:08 AM PDT 8:46 PM PDT
Nautical Twilight 4:31 AM PDT 9:24 PM PDT
Astronomical Twilight 3:49 AM PDT 10:06 PM PDT
Moon 10:14 AM PDT (6/13) 11:33 PM PDT (6/13)
Length of Visible Light 15h 37m
Length of Day
14h 36m
Waxing Crescent, 22% of the Moon is Illuminated
Jun 13
Waxing Crescent
Jun 16
First Quarter
Jun 23
Full
Jun 29
Last Quarter
Jul 8
New

Hourly Weather History & Observations

Time (PDT) Temp. Dew Point Humidity Pressure Visibility Wind Dir Wind Speed Gust Speed Precip Events Conditions
12:15 AM 73.4 °F 39.2 °F 29% 29.92 in 10.0 mi NW 15.0 mph - N/A   Unknown
12:35 AM 73.4 °F 37.4 °F 27% 29.92 in 10.0 mi NW 16.1 mph - N/A   Unknown
12:55 AM 71.6 °F 39.2 °F 31% 29.93 in 10.0 mi NNW 12.7 mph - N/A   Unknown
1:15 AM 71.6 °F 39.2 °F 31% 29.93 in 10.0 mi NNW 12.7 mph - N/A   Unknown
1:35 AM 69.8 °F 37.4 °F 31% 29.93 in 10.0 mi NNW 12.7 mph - N/A   Unknown
1:55 AM 69.8 °F 35.6 °F 28% 29.93 in 10.0 mi NW 11.5 mph - N/A   Unknown
2:15 AM 68.0 °F 35.6 °F 30% 29.93 in 10.0 mi NW 11.5 mph - N/A   Unknown
2:35 AM 66.2 °F 35.6 °F 32% 29.94 in 10.0 mi NNW 10.4 mph - N/A   Unknown
2:55 AM 66.2 °F 35.6 °F 32% 29.94 in 10.0 mi NNW 8.1 mph - N/A   Unknown
3:15 AM 66.2 °F 35.6 °F 32% 29.95 in 10.0 mi NNW 9.2 mph - N/A   Unknown
3:35 AM 64.4 °F 35.6 °F 34% 29.94 in 10.0 mi NNW 9.2 mph - N/A   Unknown
3:55 AM 64.4 °F 35.6 °F 34% 29.95 in 10.0 mi NW 10.4 mph - N/A   Unknown
4:15 AM 64.4 °F 35.6 °F 34% 29.96 in 10.0 mi NW 10.4 mph - N/A   Unknown
4:35 AM 62.6 °F 37.4 °F 39% 29.97 in 10.0 mi NW 9.2 mph - N/A   Unknown
4:55 AM 62.6 °F 37.4 °F 39% 29.97 in 10.0 mi NW 10.4 mph - N/A   Unknown
5:15 AM 62.6 °F 37.4 °F 39% 29.98 in 10.0 mi NW 10.4 mph - N/A   Unknown
5:35 AM 60.8 °F 37.4 °F 42% 29.99 in 10.0 mi NW 8.1 mph - N/A   Unknown
5:55 AM 60.8 °F 37.4 °F 42% 29.99 in 10.0 mi NW 5.8 mph - N/A   Unknown
6:15 AM 60.8 °F 39.2 °F 45% 30.00 in 10.0 mi NW 5.8 mph - N/A   Unknown
6:35 AM 60.8 °F 39.2 °F 45% 30.01 in 10.0 mi WNW 9.2 mph - N/A   Unknown
6:55 AM 60.8 °F 39.2 °F 45% 30.02 in 10.0 mi WNW 9.2 mph - N/A   Unknown
7:15 AM 62.6 °F 39.2 °F 42% 30.03 in 10.0 mi WNW 6.9 mph - N/A   Unknown
7:35 AM 62.6 °F 39.2 °F 42% 30.03 in 10.0 mi WNW 6.9 mph - N/A   Unknown
7:55 AM 64.4 °F 39.2 °F 40% 30.04 in 10.0 mi NW 6.9 mph - N/A   Unknown
8:15 AM 66.2 °F 41.0 °F 40% 30.05 in 10.0 mi North 5.8 mph - N/A   Unknown
8:35 AM 66.2 °F 41.0 °F 40% 30.05 in 10.0 mi North 5.8 mph - N/A   Unknown
8:55 AM 69.8 °F 41.0 °F 35% 30.05 in 10.0 mi North 8.1 mph - N/A   Unknown
9:15 AM 71.6 °F 41.0 °F 33% 30.06 in 10.0 mi North 10.4 mph - N/A   Unknown
9:35 AM 73.4 °F 41.0 °F 31% 30.06 in 8.0 mi NNW 11.5 mph - N/A   Unknown
9:55 AM 73.4 °F 41.0 °F 31% 30.06 in 10.0 mi NW 12.7 mph - N/A   Unknown
10:15 AM 75.2 °F 39.2 °F 27% 30.06 in 10.0 mi NW 11.5 mph - N/A   Unknown
10:35 AM 75.2 °F 42.8 °F 31% 30.06 in 10.0 mi NW 11.5 mph - N/A   Unknown
10:55 AM 77.0 °F 41.0 °F 28% 30.06 in 10.0 mi NNW 11.5 mph 16.1 mph N/A   Unknown
11:15 AM 78.8 °F 42.8 °F 28% 30.05 in 10.0 mi NW 13.8 mph 17.3 mph N/A   Unknown
11:35 AM 78.8 °F 42.8 °F 28% 30.05 in 10.0 mi WNW 8.1 mph 19.6 mph N/A   Unknown
11:55 AM 80.6 °F 42.8 °F 26% 30.05 in 10.0 mi NW 12.7 mph - N/A   Unknown
12:15 PM 80.6 °F 42.8 °F 26% 30.04 in 10.0 mi NW 10.4 mph - N/A   Unknown
12:35 PM 80.6 °F 42.8 °F 26% 30.04 in 10.0 mi WNW 9.2 mph 16.1 mph N/A   Unknown
12:55 PM 80.6 °F 44.6 °F 28% 30.04 in 10.0 mi West 9.2 mph 16.1 mph N/A   Unknown
1:15 PM 80.6 °F 42.8 °F 26% 30.03 in 10.0 mi WNW 9.2 mph - N/A   Unknown
1:35 PM 82.4 °F 42.8 °F 25% 30.02 in 10.0 mi NW 9.2 mph - N/A   Unknown
1:55 PM 82.4 °F 42.8 °F 25% 30.01 in 10.0 mi NW 4.6 mph - N/A   Unknown
2:15 PM 84.2 °F 42.8 °F 23% 30.00 in 10.0 mi NNW 9.2 mph - N/A   Unknown
2:35 PM 84.2 °F 41.0 °F 22% 30.00 in 10.0 mi WNW 11.5 mph - N/A   Unknown
2:55 PM 84.2 °F 39.2 °F 20% 29.99 in 10.0 mi WNW 10.4 mph - N/A   Unknown
3:15 PM 84.2 °F 35.6 °F 18% 29.98 in 10.0 mi NW 5.8 mph - N/A   Unknown
3:35 PM 87.8 °F 35.6 °F 16% 29.97 in 10.0 mi NNW 8.1 mph - N/A   Unknown
3:55 PM 87.8 °F 33.8 °F 15% 29.97 in 10.0 mi WNW 5.8 mph - N/A   Unknown
4:15 PM 87.8 °F 35.6 °F 16% 29.96 in 10.0 mi West 6.9 mph - N/A   Unknown
4:35 PM 87.8 °F 33.8 °F 15% 29.95 in 10.0 mi NNW 11.5 mph - N/A   Unknown
4:55 PM 87.8 °F 33.8 °F 15% 29.95 in 10.0 mi NW 15.0 mph 19.6 mph N/A   Unknown
5:15 PM 87.8 °F 37.4 °F 17% 29.94 in 10.0 mi WNW 15.0 mph - N/A   Unknown
5:35 PM 87.8 °F 37.4 °F 17% 29.93 in 10.0 mi NW 15.0 mph - N/A   Unknown
5:55 PM 86.0 °F 39.2 °F 19% 29.93 in 10.0 mi NW 15.0 mph - N/A   Unknown
6:15 PM 87.8 °F 37.4 °F 17% 29.93 in 10.0 mi NW 15.0 mph - N/A   Unknown
6:35 PM 86.0 °F 41.0 °F 20% 29.93 in 10.0 mi NW 12.7 mph - N/A   Unknown
6:55 PM 84.2 °F 42.8 °F 23% 29.93 in 10.0 mi NW 13.8 mph - N/A   Unknown
7:15 PM 84.2 °F 42.8 °F 23% 29.93 in 10.0 mi WNW 10.4 mph - N/A   Unknown
7:35 PM 82.4 °F 44.6 °F 26% 29.93 in 10.0 mi WNW 11.5 mph - N/A   Unknown
7:55 PM 80.6 °F 44.6 °F 28% 29.93 in 10.0 mi WNW 10.4 mph - N/A   Unknown
8:15 PM 78.8 °F 46.4 °F 32% 29.93 in 10.0 mi WNW 9.2 mph - N/A   Unknown
8:35 PM 77.0 °F 46.4 °F 34% 29.93 in 10.0 mi WNW 10.4 mph - N/A   Unknown
8:55 PM 75.2 °F 46.4 °F 36% 29.93 in 10.0 mi WNW 8.1 mph - N/A   Unknown
9:15 PM 73.4 °F 44.6 °F 36% 29.94 in 10.0 mi NW 8.1 mph - N/A   Unknown
9:35 PM 73.4 °F 44.6 °F 36% 29.94 in 10.0 mi WNW 8.1 mph - N/A   Unknown
9:55 PM 73.4 °F 44.6 °F 36% 29.95 in 10.0 mi NW 8.1 mph - N/A   Unknown
10:15 PM 71.6 °F 41.0 °F 33% 29.95 in 10.0 mi NW 8.1 mph - N/A   Unknown
10:35 PM 71.6 °F 42.8 °F 35% 29.95 in 10.0 mi NW 8.1 mph - N/A   Unknown
10:55 PM 69.8 °F 42.8 °F 38% 29.95 in 10.0 mi NW 9.2 mph - N/A   Unknown
11:15 PM 69.8 °F 42.8 °F 38% 29.95 in 10.0 mi NW 8.1 mph - N/A   Unknown
11:35 PM 68.0 °F 42.8 °F 40% 29.95 in 10.0 mi NW 8.1 mph - N/A   Unknown
11:55 PM 68.0 °F 42.8 °F 40% 29.94 in 10.0 mi NW 8.1 mph - N/A   Unknown